Probability
0 0 3 0 0 0 0 0 0 0 0 0 0 0 0 0 0 3 3 0 0 0 0 0 0 0 0 0 0 0 0 3 3 3 3 3 3 0 0 0 0 0 0 0
0 0 0 0 0 0 0 0 0 0 0 0 0 0 0 3 0 3 3 0 0 0 0 0 0 0 0 0 0 3 3 3 3 3 0 3 3 0 0 0 0 0 0 0
0 0 0 0 0 0 0 0 0 0 0 0 0 0 0 3 3 0 0 0 0 0 0 0 0 0 0 0 0 0 3 3 0 0 0 0 0 0 0 0 0 0 0 0
0 0 0 0 0 0 0 0 0 0 0 0 0 0 0 3 3 0 0 0 0 0 0 0 0 0 0 0 0 0 0 0 0 0 0 0 0 0 0 0 0 0 0 0
0 0 0 0 0 0 0 0 0 0 0 0 0 0 0 0 0 0 0 0 0 0 0 0 0 0 0 0 0 0 0 0 0 0 0 0 0 0 0 0 0 0 0 0
0 0 0 0 0 0 0 0 0 0 0 0 0 0 0 0 0 0 0 0 0 0 0 0 0 0 0 0 0 0 0 0 0 0 0 0 0 0 0 0 0 0 0 0
0 0 0 0 0 0 0 0 0 0 0 0 0 0 0 0 0 0 0 0 0 0 0 0 0 0 0 0 0 0 0 0 0 0 0 0 0 0 0 0 0 0 0 0
0 0 0 0 0 0 0 0 0 0 0 0 0 0 0 0 0 0 0 0 0 0 0 0 0 0 0 0 0 0 0 0 0 0 0 0 0 0 0 0 0 0 0 0
0 0 0 0 0 0 0 0 0 0 0 0 0 0 0 0 0 3 3 0 0 0 0 0 0 0 0 0 0 0 0 0 0 0 0 0 0 0 0 0 0 0 0 0
0 0 0 0 0 0 0 0 0 0 0 0 0 0 0 0 0 3 3 0 0 0 0 0 0 0 0 0 0 0 0 0 0 0 0 0 0 0 0 0 0 0 0 0
0 0 0 0 0 0 0 0 0 0 0 0 0 0 0 0 0 3 0 0 0 0 0 0 0 0 0 0 0 0 0 0 0 0 0 0 0 0 0 0 0 0 0 0
0 0 0 0 0 0 0 0 0 0 0 0 0 0 0 0 0 0 0 3 0 0 0 0 0 0 0 0 0 0 0 0 0 0 0 0 0 0 0 0 0 0 0 0
0 0 0 0 0 0 0 0 0 0 0 0 0 0 0 0 0 3 0 3 0 0 0 0 0 0 0 0 0 0 0 0 0 0 0 0 0 0 0 0 0 0 0 0
0 0 0 0 0 0 0 0 0 0 0 0 0 0 0 0 0 0 0 0 3 3 3 3 0 0 0 0 0 0 0 0 0 0 0 0 0 0 0 0 0 0 0 0
0 0 0 0 0 0 0 0 0 0 0 0 0 0 0 0 0 0 0 0 0 0 0 0 3 0 0 0 0 0 0 0 0 0 0 0 0 0 0 0 0 0 0 0
0 0 0 0 0 0 0 0 0 0 0 0 0 0 0 0 0 0 0 0 0 0 0 0 3 0 0 0 0 0 0 0 0 0 0 0 0 0 0 0 0 0 0 0
0 0 0 0 0 0 0 0 0 0 0 0 0 0 0 0 0 0 0 0 0 3 3 3 3 0 0 0 0 0 0 0 0 0 0 0 0 0 0 0 0 0 0 0
0 0 0 0 0 0 0 0 0 0 0 0 0 0 0 0 0 0 0 0 0 3 3 3 3 0 0 0 0 0 0 0 0 0 0 0 0 0 0 0 0 0 0 0
0 0 0 0 0 0 0 0 0 0 0 0 0 0 0 0 0 0 0 0 0 3 3 3 3 3 0 0 0 0 0 0 0 0 0 0 0 0 0 0 0 0 0 0
0 0 0 0 0 0 0 0 0 0 0 0 0 0 0 0 0 0 0 0 0 3 3 3 3 3 0 0 0 0 0 0 0 0 0 0 0 0 0 0 0 0 0 0
0 0 0 0 0 0 0 0 0 0 0 0 0 0 0 0 0 0 0 0 0 3 3 3 0 3 0 0 0 0 0 0 0 0 0 0 0 0 0 0 0 0 0 0
0 0 0 0 0 0 0 0 0 0 0 0 0 0 0 0 0 0 0 3 3 3 3 3 3 3 3 0 0 0 0 0 0 0 0 0 0 0 0 3 0 0 0 0
0 0 0 0 0 0 0 0 0 0 0 0 0 0 0 0 0 0 0 0 0 0 3 3 3 0 0 0 0 0 0 0 0 0 0 0 0 0 0 0 3 3 0 0
0 0 0 0 0 0 0 0 0 0 0 0 0 0 0 0 0 0 0 0 0 0 3 0 3 0 0 0 0 0 0 0 0 0 0 0 0 0 0 0 0 0 0 0
0 0 0 0 0 0 0 0 0 0 0 0 0 0 0 0 0 0 0 0 0 0 0 0 0 0 0 0 0 0 0 0 0 0 0 0 0 0 0 0 0 0 0 0
0 0 0 0 0 0 0 0 0 0 0 0 0 0 0 0 0 0 0 0 0 0 0 0 0 0 0 0 0 0 0 0 0 0 0 0 0 0 0 0 0 0 0 0
Height
5829 5831 5831 5833 5833 5835 5836 5839 5840 5842 5844 5846 5848 5850 5852 5854 5856 5858 5860 5862 5864 5866 5868 5869 5870 5872 5873 5874 5875 5876 5877 5877 5878 5878 5879 5879 5879 5879 5878 5878 5877 5875 5874 5872
5830 5830 5831 5832 5834 5835 5837 5839 5840 5842 5843 5845 5847 5849 5851 5853 5855 5857 5859 5861 5863 5865 5867 5868 5870 5871 5872 5874 5875 5875 5876 5877 5877 5877 5878 5878 5879 5878 5878 5877 5876 5875 5874 5872
5830 5831 5831 5833 5834 5836 5837 5838 5839 5841 5843 5845 5847 5849 5851 5853 5854 5856 5858 5860 5862 5864 5866 5867 5869 5870 5872 5873 5874 5874 5875 5876 5876 5877 5877 5878 5878 5878 5878 5877 5876 5875 5873 5872
5829 5830 5832 5833 5834 5835 5837 5838 5840 5841 5843 5845 5847 5848 5850 5851 5853 5855 5857 5859 5861 5863 5865 5867 5868 5869 5871 5872 5873 5874 5874 5875 5876 5876 5877 5877 5877 5877 5877 5876 5875 5874 5873 5872
5830 5831 5832 5833 5834 5835 5837 5838 5839 5841 5843 5845 5846 5847 5849 5850 5852 5854 5856 5858 5860 5862 5864 5865 5867 5868 5870 5871 5872 5873 5874 5874 5875 5875 5876 5876 5877 5876 5876 5875 5875 5874 5873 5872
5830 5831 5832 5833 5834 5836 5837 5838 5840 5841 5842 5845 5846 5847 5849 5850 5852 5853 5855 5857 5859 5861 5863 5864 5866 5867 5869 5870 5871 5872 5873 5874 5874 5874 5875 5875 5875 5875 5875 5875 5874 5873 5872 5871
5831 5832 5832 5833 5834 5836 5837 5839 5841 5841 5842 5844 5846 5847 5849 5849 5851 5852 5854 5856 5858 5860 5862 5863 5865 5866 5867 5869 5870 5871 5872 5872 5873 5873 5874 5874 5874 5874 5874 5874 5873 5872 5872 5871
5830 5832 5833 5834 5835 5836 5837 5839 5841 5842 5843 5844 5845 5846 5848 5849 5850 5852 5853 5855 5857 5859 5860 5862 5864 5865 5866 5868 5869 5870 5870 5871 5872 5872 5873 5873 5873 5873 5873 5873 5872 5871 5871 5870
5830 5831 5832 5833 5834 5836 5837 5838 5840 5841 5842 5843 5845 5846 5847 5848 5849 5851 5852 5854 5856 5858 5859 5861 5862 5864 5865 5866 5868 5868 5869 5870 5870 5871 5871 5871 5872 5872 5872 5871 5871 5870 5869 5869
5829 5831 5832 5833 5834 5835 5837 5838 5840 5841 5842 5843 5845 5845 5847 5848 5849 5850 5851 5853 5854 5856 5858 5860 5861 5863 5864 5865 5866 5867 5868 5868 5869 5870 5870 5870 5870 5870 5870 5870 5869 5869 5868 5867
5828 5830 5831 5832 5833 5834 5836 5837 5838 5840 5841 5843 5843 5846 5846 5847 5848 5849 5850 5852 5853 5855 5857 5858 5860 5861 5862 5863 5864 5865 5866 5867 5867 5868 5868 5868 5868 5868 5868 5868 5868 5867 5867 5866
5827 5828 5829 5831 5832 5833 5834 5835 5837 5839 5840 5841 5842 5846 5844 5845 5846 5847 5849 5850 5851 5853 5855 5857 5858 5859 5861 5862 5863 5864 5864 5865 5865 5866 5866 5866 5866 5866 5866 5866 5866 5865 5865 5864
5825 5827 5828 5829 5832 5832 5833 5834 5836 5837 5838 5840 5841 5844 5842 5843 5845 5846 5847 5848 5850 5851 5853 5855 5856 5858 5859 5860 5861 5861 5862 5863 5863 5863 5863 5864 5864 5864 5864 5864 5863 5863 5862 5861
5824 5825 5827 5828 5828 5830 5831 5833 5834 5835 5836 5838 5839 5840 5841 5842 5843 5844 5845 5846 5848 5850 5851 5853 5854 5855 5856 5857 5858 5859 5860 5860 5861 5861 5861 5861 5861 5861 5861 5861 5860 5860 5859 5858
5822 5824 5824 5825 5826 5828 5829 5831 5832 5833 5835 5836 5837 5837 5839 5840 5841 5842 5843 5845 5846 5848 5849 5851 5852 5853 5854 5855 5856 5856 5857 5857 5858 5858 5858 5858 5858 5857 5857 5857 5857 5856 5855 5854
5820 5822 5823 5824 5825 5826 5827 5829 5830 5831 5832 5833 5834 5835 5836 5837 5839 5840 5841 5843 5844 5846 5847 5848 5849 5850 5851 5852 5853 5854 5854 5854 5855 5855 5855 5855 5854 5854 5853 5853 5852 5852 5851 5850
5817 5819 5820 5821 5823 5824 5826 5827 5828 5829 5830 5831 5832 5834 5834 5835 5836 5838 5839 5840 5842 5843 5844 5845 5847 5848 5849 5849 5850 5850 5851 5851 5851 5851 5851 5851 5850 5849 5849 5848 5848 5848 5847 5846
5814 5815 5817 5818 5821 5821 5825 5824 5825 5826 5827 5828 5829 5830 5832 5833 5834 5835 5836 5838 5839 5840 5841 5843 5844 5845 5845 5846 5847 5847 5847 5848 5848 5847 5847 5846 5845 5845 5844 5844 5843 5843 5842 5841
5810 5812 5813 5815 5816 5818 5821 5821 5822 5823 5824 5826 5827 5828 5829 5830 5831 5833 5834 5835 5837 5837 5838 5840 5840 5841 5842 5842 5843 5844 5844 5844 5844 5843 5843 5842 5841 5840 5839 5839 5838 5837 5836 5835
5807 5808 5810 5812 5813 5815 5818 5818 5819 5821 5821 5823 5823 5824 5826 5827 5829 5830 5831 5832 5833 5834 5835 5836 5837 5838 5838 5839 5839 5840 5840 5840 5840 5839 5838 5837 5836 5835 5834 5833 5832 5831 5830 5829
5803 5804 5806 5808 5809 5811 5813 5814 5816 5818 5819 5819 5820 5821 5822 5823 5825 5827 5827 5829 5830 5831 5832 5833 5834 5834 5835 5835 5836 5836 5836 5836 5835 5834 5833 5832 5831 5830 5829 5828 5826 5825 5824 5822
5799 5800 5802 5804 5805 5809 5809 5810 5812 5813 5814 5815 5816 5817 5819 5820 5820 5822 5823 5825 5826 5827 5828 5829 5830 5830 5831 5831 5832 5831 5831 5831 5830 5829 5828 5827 5826 5825 5823 5822 5820 5818 5817 5815
5794 5797 5798 5800 5803 5803 5804 5805 5807 5808 5810 5811 5812 5813 5814 5816 5817 5819 5820 5821 5822 5823 5824 5824 5825 5826 5826 5826 5826 5826 5826 5825 5825 5824 5823 5821 5820 5819 5817 5815 5813 5811 5809 5807
5789 5791 5792 5794 5796 5797 5799 5800 5802 5803 5805 5806 5808 5809 5810 5812 5813 5814 5815 5816 5817 5818 5819 5820 5820 5821 5821 5821 5821 5821 5820 5819 5819 5818 5816 5815 5814 5812 5810 5808 5805 5803 5801 5798
5784 5786 5787 5789 5791 5792 5794 5795 5797 5798 5800 5801 5803 5804 5806 5807 5808 5810 5811 5811 5812 5813 5814 5814 5815 5815 5816 5815 5815 5815 5814 5813 5811 5810 5809 5808 5806 5804 5802 5799 5797 5794 5792 5788
5778 5780 5781 5783 5785 5787 5789 5790 5792 5793 5795 5796 5798 5800 5801 5802 5803 5804 5805 5806 5807 5808 5808 5809 5809 5809 5809 5809 5809 5808 5807 5806 5804 5803 5801 5799 5797 5795 5793 5790 5788 5785 5782 5778
Wind_Speed
5 5 5 6 7 6 8 8 8 9 10 10 9 10 9 10 10 10 10 10 10 9 8 7 6 6 5 4 3 3 3 3 3 3 3 3 3 4 5 6 7 8 9 10
4 4 5 5 6 6 7 8 8 8 8 9 9 9 9 10 9 10 10 10 9 9 8 8 7 6 5 5 5 5 4 3 3 3 3 3 3 4 4 6 7 8 8 9
4 5 4 5 7 7 8 8 8 8 8 9 9 9 9 9 9 10 11 10 10 9 8 8 7 7 6 5 5 4 4 4 4 3 3 3 3 4 5 6 7 7 8 9
4 4 4 5 7 8 7 8 7 7 8 8 8 8 9 10 10 11 11 11 10 10 9 9 8 7 6 6 5 5 5 4 4 3 3 3 3 4 5 5 6 7 8 8
4 4 5 6 7 7 6 6 6 7 8 9 9 7 7 8 8 10 11 11 11 10 9 9 9 8 7 6 6 6 5 4 4 4 4 4 4 4 5 5 6 7 7 8
4 4 5 6 6 7 7 5 5 6 7 8 8 7 7 8 8 10 11 10 10 10 9 9 9 8 7 7 7 7 6 5 4 5 4 5 4 4 5 5 6 6 7 8
5 5 5 6 6 7 7 6 4 4 6 5 7 8 7 8 8 10 11 11 11 10 9 9 8 8 8 7 7 6 5 5 4 5 5 5 4 5 5 6 6 6 7 8
5 5 6 6 6 6 7 6 5 4 5 5 6 7 7 8 8 9 10 11 11 10 10 10 9 8 8 8 8 7 6 5 5 5 5 5 5 6 6 6 6 6 7 8
5 6 7 7 7 8 8 7 5 5 6 6 6 7 7 8 9 10 9 10 10 10 10 9 9 9 8 8 8 7 7 6 6 5 6 5 6 6 6 6 6 6 7 8
8 7 7 8 9 9 9 9 8 7 7 7 7 7 7 8 9 9 9 9 9 10 10 10 10 9 8 8 8 8 7 7 7 6 7 6 7 6 7 6 6 6 7 9
9 8 8 8 9 9 9 10 10 10 9 8 7 8 7 8 9 10 10 10 10 10 10 10 9 9 9 8 8 8 8 8 8 8 8 8 8 8 7 7 7 8 8 10
10 10 9 8 8 9 9 10 11 10 9 8 8 7 8 9 10 11 11 10 10 10 10 10 9 10 9 9 9 9 9 9 9 9 9 9 9 9 9 9 9 9 10 11
11 10 9 8 8 9 9 10 11 11 11 10 11 9 8 10 11 11 10 10 10 10 10 10 9 9 10 10 10 10 9 9 9 9 10 10 10 10 10 11 11 12 12 12
12 11 10 9 8 9 10 11 12 12 11 11 12 11 10 11 12 11 11 10 11 11 11 11 11 11 10 10 10 10 10 10 10 10 10 11 11 11 12 12 13 14 14 14
13 13 12 11 11 11 12 12 12 13 12 13 12 12 12 12 13 12 12 11 11 11 12 12 12 11 11 10 10 10 10 10 11 11 11 11 12 13 14 14 15 15 16 15
14 14 14 12 12 12 12 13 13 13 13 13 14 13 12 12 12 13 12 12 12 13 13 13 12 12 12 11 11 11 11 11 11 12 12 13 14 15 15 16 16 17 17 17
15 15 15 14 13 13 13 13 13 13 14 14 14 13 13 13 12 13 13 12 12 13 14 13 13 13 12 12 12 11 12 12 12 12 13 14 16 16 16 16 17 17 18 19
15 15 15 14 14 14 12 12 13 14 13 13 13 12 13 13 13 13 13 13 13 13 13 14 14 14 14 13 12 12 13 13 14 14 15 16 17 17 18 18 19 19 21 22
16 16 15 15 15 14 14 13 13 14 14 13 13 13 14 14 14 14 14 13 13 14 14 14 14 14 14 13 13 14 14 14 15 16 17 18 19 19 20 20 21 22 23 24
16 17 17 16 16 15 14 14 14 15 15 14 14 14 14 15 16 15 15 14 14 14 15 15 15 15 14 15 15 15 16 16 16 17 18 20 21 21 22 22 23 24 25 26
17 17 18 17 17 16 15 15 15 16 15 15 16 16 15 16 16 16 16 15 15 15 15 15 15 16 16 16 16 17 17 17 18 19 20 21 21 22 23 23 24 25 26 27
18 18 18 18 19 18 17 17 17 17 16 16 16 16 16 16 17 17 16 16 16 17 17 17 17 18 18 17 18 18 19 19 20 20 21 22 22 23 24 25 26 27 28 29
20 19 19 19 20 19 19 19 19 18 17 16 16 16 16 17 17 17 17 17 17 18 18 18 19 19 19 19 20 20 21 21 22 22 23 23 24 25 26 27 28 29 30 31
21 21 21 21 20 20 20 20 20 20 19 18 18 17 17 17 17 17 17 17 17 18 18 18 19 20 20 20 21 21 22 23 24 24 25 26 27 28 29 30 31 32 33 34
23 23 23 22 21 21 21 21 21 21 20 20 19 19 18 18 17 17 18 18 19 19 19 19 20 20 20 21 22 23 24 25 25 26 27 28 29 30 32 32 33 34 35 36
24 24 24 24 23 23 22 21 21 21 21 20 19 19 19 19 19 19 19 19 19 19 19 20 20 20 21 22 23 24 25 26 27 29 30 31 32 33 34 35 36 37 38 39
Wind_Direction
205 208 205 208 218 210 203 202 206 209 209 213 214 215 214 218 220 217 213 210 204 203 204 204 206 209 210 211 218 228 237 252 261 269 280 299 314 332 345 351 354 358 1 2
206 214 210 210 211 198 201 202 207 211 206 208 211 212 213 217 220 220 217 211 206 206 208 207 207 209 214 221 227 234 239 253 261 265 277 294 309 326 338 348 351 355 358 1
217 224 220 210 202 205 213 212 209 207 204 203 208 210 217 213 216 217 214 210 211 210 212 209 207 216 216 218 226 230 233 245 259 259 268 287 304 320 330 340 346 352 356 358
212 216 212 209 205 208 208 208 213 211 207 206 217 221 215 215 211 212 212 211 210 211 215 214 211 216 218 221 227 230 234 241 247 257 268 280 297 313 324 335 343 351 352 351
212 218 213 204 203 200 200 206 199 199 206 210 219 228 216 214 215 214 214 211 212 212 216 217 215 215 220 221 227 234 236 239 248 257 262 274 290 307 318 328 338 345 348 349
215 210 209 196 192 190 188 192 191 196 206 214 220 228 220 221 221 218 216 212 213 214 219 219 216 218 221 222 228 229 229 240 252 257 262 275 286 301 314 323 331 338 344 346
216 210 211 210 202 192 191 191 188 204 224 219 219 228 226 222 223 220 216 210 211 215 220 215 213 218 218 219 223 224 228 243 254 260 265 274 280 296 310 320 329 335 340 343
224 225 224 217 213 202 200 201 198 209 221 221 222 234 235 226 223 223 220 214 213 214 216 215 217 220 219 222 224 226 232 245 256 262 269 272 280 291 302 310 322 329 333 336
219 225 227 222 218 217 212 205 210 219 227 223 225 243 240 236 229 225 224 218 218 214 216 219 222 221 225 227 229 233 238 246 254 260 268 273 281 288 297 304 314 323 328 330
224 225 226 221 221 220 218 207 210 222 222 220 221 241 243 238 235 229 225 222 221 221 221 223 226 228 227 228 233 237 242 248 254 259 267 274 281 286 293 299 306 317 323 325
227 229 231 227 222 223 222 217 217 218 222 222 224 232 246 252 244 238 235 232 230 227 223 221 223 228 231 235 236 242 247 253 257 261 267 272 277 281 286 293 302 309 316 320
227 224 230 232 228 229 229 223 217 220 223 228 246 246 251 253 246 240 239 236 231 225 221 220 224 230 234 239 242 248 253 257 261 267 270 272 275 278 283 290 297 302 307 314
226 220 222 229 228 228 226 223 221 225 225 224 238 247 248 250 245 243 240 237 233 231 228 227 232 237 241 245 247 251 256 259 260 266 270 273 274 278 283 290 294 299 302 307
226 224 229 234 235 232 230 226 224 229 233 234 238 247 244 247 243 241 239 237 234 234 233 234 239 243 242 245 250 254 260 264 266 270 275 277 278 281 284 290 294 297 300 303
231 226 227 237 241 238 237 235 233 233 240 242 240 243 243 243 241 239 237 237 237 239 240 241 242 244 245 250 254 256 262 268 272 274 277 283 286 287 288 289 292 295 298 300
234 232 233 237 243 241 238 236 240 241 243 248 248 241 241 239 237 239 241 242 243 244 244 245 247 249 250 254 256 258 263 268 274 277 281 285 289 290 290 291 292 294 297 300
236 237 238 239 241 242 242 240 240 243 245 249 245 241 237 235 237 239 243 244 246 247 248 248 252 253 251 255 259 262 265 270 274 279 284 287 289 291 290 291 293 294 297 299
240 238 237 237 237 243 244 243 246 248 248 252 249 245 242 238 240 242 244 246 249 248 249 250 252 255 258 259 261 264 269 272 276 279 282 288 289 289 290 291 292 294 296 298
242 239 237 235 239 244 244 247 249 250 250 252 249 249 246 241 242 244 245 246 250 251 252 254 257 259 259 259 263 267 272 276 280 283 285 289 290 289 290 291 291 293 295 296
243 241 240 237 243 247 249 251 250 250 250 249 249 250 250 244 244 246 247 247 249 252 253 256 258 259 261 263 266 271 276 279 283 286 289 291 292 292 291 291 292 294 295 296
247 243 241 239 243 246 249 252 252 251 251 249 249 250 250 247 246 249 250 250 252 254 256 258 259 260 263 266 269 274 279 282 286 288 290 292 294 294 293 293 294 295 296 297
245 243 242 243 244 247 251 251 251 252 252 253 254 253 251 249 249 251 252 253 253 255 256 258 260 264 266 269 272 276 280 283 285 288 290 292 293 294 295 295 295 296 297 298
244 244 244 246 248 249 250 251 251 252 254 255 256 254 252 250 250 251 254 256 257 257 259 261 263 267 270 272 275 278 280 283 286 288 290 292 293 294 295 295 296 297 298 298
243 244 245 246 247 250 252 252 251 251 253 254 255 255 254 255 254 254 255 258 260 261 262 264 266 270 272 274 277 280 283 286 287 289 291 292 294 294 296 296 297 297 298 299
245 246 247 247 248 249 249 249 250 251 252 253 255 256 255 255 256 258 261 263 265 264 264 266 268 270 271 274 278 281 285 287 288 291 292 293 294 294 295 296 296 297 298 299
244 246 247 247 247 248 248 248 249 251 251 251 253 255 255 255 256 259 261 262 263 263 265 268 270 271 274 277 281 283 286 287 289 290 292 293 294 295 296 297 297 297 298 299